Location: Casape
(41.9000°N, 12.8833°E)
Time: 13:31:04
(UTC+00:00)

Daily predictions for brighter satellites

Satellite Brightness Start Highest point End
(mag) Time Altitude Azimuth Time Altitude Azimuth Time Altitude Azimuth
SL-8 R/B 3.8 18:21:02 10° WNW 18:25:54 83° NNE 18:30:43 10° ESE
Cosmos 1408 2.4 18:30:01 10° N 18:33:35 83° E 18:37:08 10° S
NOSS 0 Rocket 4.4 18:28:16 10° NNW 18:34:16 47° ENE 18:40:15 10° SE
Okean-O 3.9 18:30:33 10° S 18:34:45 43° W 18:39:00 10° NNW
Cosmos 2058 Rocket 3.0 18:30:57 10° S 18:35:17 79° E 18:39:40 10° N
RESURS DK-1 2.9 18:31:30 10° SW 18:35:35 65° WNW 18:39:42 10° NNE
Cosmos 1953 Rocket 3.8 18:31:44 10° NNW 18:36:05 74° W 18:40:22 10° S
Cosmos 1140 Rocket 4.5 18:33:45 10° SSE 18:37:47 24° E 18:41:50 10° NE
Cosmos 909 Rocket 4.0 18:33:03 10° SSW 18:39:26 75° ESE 18:45:48 10° NE
Cosmos 405 Rocket 3.5 18:39:12 10° N 18:42:52 34° ENE 18:46:25 10° SE
Cosmos 2237 Rocket 3.0 18:39:10 10° N 18:44:19 35° ENE 18:48:56 12° ESE
Helios 1A Rocket 3.3 18:40:18 10° S 18:44:21 68° WSW 18:48:28 10° NNW
Cosmos 1818 3.9 18:40:40 10° SW 18:46:04 71° NW 18:51:33 10° NNE
Hubble Space Telescope 3.0 18:46:32 10° S 18:47:35 11° S 18:48:36 10° SSE
H-2A R/B 4.4 18:44:36 10° SSW 18:48:33 23° W 18:52:29 10° NW
DMSP B5D2-2 4.3 18:44:16 10° N 18:49:31 75° WNW 18:54:45 10° SSW
Cosmos 1892 4.2 18:50:31 10° NNW 18:54:04 39° W 18:57:36 10° SSW
Cosmos 1825 2.1 18:51:55 10° N 18:55:43 90° E 18:59:29 10° S
MetOp-A 4.3 18:51:13 10° S 18:56:34 81° WSW 19:01:58 10° NNW
Cosmos 2227 Rocket 2.8 18:52:16 10° SSE 18:57:17 33° ESE 19:02:18 10° NE
Abrixas rocket 3.6 18:58:33 10° NW 18:59:18 12° NNW 19:00:04 10° NNE
Exosat Rocket 3.6 18:53:17 10° NNW 18:59:23 84° ENE 19:04:24 10° SSE
ATLAS 2AS CENTAUR R/B 4.4 18:52:33 10° WSW 19:00:00 43° NW 19:07:20 10° NNE
Cosmos 1092 Rocket 4.3 18:56:36 10° NNW 19:02:48 70° W 19:08:55 10° S
Cosmos 2297 Rocket 2.4 18:58:26 10° S 19:03:50 50° ESE 19:09:17 10° NE
Cosmos 2058 3.0 19:01:10 10° N 19:05:21 78° W 19:09:29 10° S
FALCON 9 DEB 2.7 19:02:44 10° SW 19:05:45 64° SE 19:08:47 10° ENE
Cosmos 1633 3.6 19:04:54 10° NNE 19:08:01 27° ENE 19:09:14 22° ESE
Lacrosse 5 rocket 4.3 19:07:37 10° N 19:08:19 10° N 19:09:01 10° N
FALCON 9 DEB 2.7 19:07:25 10° SW 19:10:27 89° NW 19:13:29 10° NE
Resurs 01 Rocket 2.4 19:08:36 19° SE 19:11:09 36° ENE 19:15:14 10° N
Resurs 1-3 3.6 19:09:14 15° SSE 19:12:50 64° ENE 19:17:11 10° N
Cosmos 2219 3.3 19:07:33 10° S 19:12:59 53° ESE 19:18:26 10° NNE
Genesis I 4.3 19:12:15 10° NNW 19:15:53 32° NE 19:17:40 22° E
BREEZE-M DEB (TANK) 4.5 19:12:26 10° WNW 19:16:24 49° N 19:29:40 10° ENE
SJ-6B 3.3 19:13:12 10° S 19:16:52 57° W 19:20:35 10° NNW
Cosmos 2333 Rocket 3.8 19:12:59 10° NW 19:18:06 34° WSW 19:23:09 10° SSW
Cosmos 2084 Rocket 3.2 19:17:33 10° SSW 19:21:27 62° ESE 19:25:26 10° NE
Cosmos 389 Rocket 2.6 19:18:06 10° SSW 19:21:36 75° W 19:25:11 10° N
Cosmos 1190 Rocket 4.1 19:16:41 10° S 19:21:45 53° ESE 19:26:49 10° NNE
FALCON 9 DEB 3.2 19:19:32 10° WSW 19:22:31 62° NW 19:25:33 10° NE
Ariane Rocket 3.0 19:18:22 11° SSE 19:23:11 86° WSW 19:28:16 10° NNW
Cosmos 2279 Rocket 4.1 19:25:28 10° S 19:31:39 81° W 19:37:53 10° N
ATLAS 3B R/B 3.4 19:26:00 10° NW 19:32:53 55° WSW 19:39:09 14° S
SPOT 1/Viking Rocket 4.3 19:33:39 27° ESE 19:35:37 37° ENE 19:40:23 10° N
Cosmos-2242 3.1 19:35:48 28° SSE 19:37:51 56° E 19:42:05 10° NNE
USA 215 4.2 19:34:16 15° E 19:39:08 38° NNE 19:45:03 10° NW
Cosmos 676 Rocket 4.2 19:37:14 22° SSE 19:40:12 45° ESE 19:45:08 10° NNE
Cosmos 1980 3.7 19:35:01 10° NNW 19:40:44 81° WSW 19:44:11 25° SSE
SL-16 R/B 3.0 19:36:09 10° N 19:41:22 36° ENE 19:43:26 27° E
Cosmos 2151 2.9 19:38:13 10° N 19:42:32 73° E 19:44:09 37° SSE
Meteor 2-21 Rocket 4.5 19:37:11 10° N 19:43:12 61° E 19:46:19 29° SSE
SPOT 3 Rocket 3.5 19:40:38 28° SSE 19:43:26 74° ENE 19:48:37 10° N
FALCON 9 DEB 3.8 19:41:23 10° WSW 19:44:22 47° NNW 19:46:41 15° NE
COSMOS 2455 2.9 19:41:22 10° S 19:47:09 51° ESE 19:52:58 10° NE
SL-4 R/B 2.5 19:47:00 10° WSW 19:51:20 66° NNW 19:55:58 10° NE
Meteor 2-16 Rocket 4.5 19:47:26 10° N 19:53:34 63° E 19:56:11 35° SSE
BREEZE M DEB (TANK) 3.5 19:50:53 10° SW 19:54:12 69° SE 20:04:06 10° ENE
ERS-1 Rocket 4.1 19:53:53 26° E 19:54:34 27° ENE 19:58:45 10° N
Cosmos 2219 Rocket 4.5 19:50:58 10° NW 19:54:54 19° W 19:58:48 10° SW
IGS 5A 3.3 19:54:20 46° SSE 19:55:33 90° WSW 19:59:43 10° NNW
Landsat 7 3.7 19:55:12 40° SSE 19:56:54 81° ENE 20:01:41 10° N
OBJECT-B 3.7 19:54:59 10° SW 19:56:55 15° W 19:58:51 10° NW
Cosmos 2266 Rocket 3.9 19:53:04 10° N 19:59:27 80° E 20:02:36 32° SSE
ATLAS 5 CENTAUR R/B 3.7 19:59:34 10° W 20:00:58 14° SW 20:01:00 14° SW
Timation 1 Rocket 4.2 19:56:16 10° SSW 20:02:09 65° ESE 20:08:04 10° NNE
Cosmos 2221 4.4 20:05:06 18° NE 20:05:06 18° NE 20:06:41 10° NE
ARIANE 5 R/B 3.0 20:04:04 44° E 20:04:15 45° ENE 20:08:26 10° N
USA 245 3.6 20:05:50 46° NE 20:05:50 46° NE 20:08:19 10° N
Cosmos 407 Rocket 4.5 20:01:05 10° SW 20:06:00 46° WNW 20:11:00 10° N
MetOp-B 4.1 20:09:17 41° S 20:11:16 83° WSW 20:16:39 10° NNW
Meteor 2-3 Rocket 3.8 20:09:41 10° NNW 20:15:25 73° W 20:17:47 36° S
Meteor 1-27 4.2 20:14:09 27° SSW 20:17:27 85° WNW 20:23:18 10° N
Cosmos 44 Rocket 3.3 20:12:44 10° SSW 20:17:47 85° ESE 20:23:00 10° NE
Cosmos 1954 Rocket 4.1 20:19:29 18° SSW 20:23:16 71° WNW 20:28:27 10° NNE
CZ-2C R/B 4.2 20:21:27 10° N 20:25:47 55° WNW 20:27:43 30° SW
Cosmos 2237 Rocket 3.4 20:23:17 10° NW 20:28:19 34° WSW 20:30:47 24° SSW
Meteor 2-15 4.3 20:29:12 58° SE 20:30:14 69° E 20:36:15 10° NNE
Cosmos 2263 Rocket 3.6 20:34:38 23° ENE 20:34:38 23° ENE 20:37:07 10° NE
Spot 2 Rocket 3.3 20:32:07 72° S 20:32:39 87° WSW 20:37:45 10° NNW
CARTOSAT-1 3.7 20:33:28 69° NNE 20:33:28 69° NNE 20:37:20 10° N
BREEZE M DEB (TANK) 3.9 20:29:47 10° W 20:35:28 31° NNW 20:36:34 24° NNE
Cosmos 1766 Rocket 3.7 20:32:14 10° NNW 20:36:22 69° WNW 20:36:22 69° WNW
Cosmos 1244 Rocket 4.5 20:32:59 10° N 20:39:18 63° E 20:39:58 59° ESE
Cosmos 2082 3.9 20:37:15 20° SW 20:41:11 67° WNW 20:46:48 10° NNE
Cosmos 2227 Rocket 3.6 20:36:04 10° SW 20:41:15 36° WNW 20:46:27 10° N
Okean 3 Rocket 4.1 20:41:17 10° NNW 20:45:39 56° W 20:45:39 56° W
Resurs 01 Rocket 3.7 20:46:09 18° WSW 20:47:44 21° W 20:51:09 10° NW
Cosmos 1869 4.5 20:47:58 39° WNW 20:47:58 39° WNW 20:51:36 10° N
Cosmos 1553 Rocket 4.1 20:48:26 54° ENE 20:48:26 54° ENE 20:54:01 10° NNE
Cosmos 2297 Rocket 4.3 20:43:27 10° WSW 20:48:08 26° NW 20:52:51 10° N
Lacrosse 5 rocket 3.7 20:46:07 10° NNW 20:49:02 17° NNE 20:49:59 16° NE
Meteor 1-4 Rocket 4.4 20:50:30 29° NW 20:50:30 29° NW 20:52:51 10° N
Cosmos 468 Rocket 3.9 20:46:57 10° NNW 20:51:46 77° N 20:51:46 77° N
Cosmos 841 Rocket 4.3 20:52:00 10° N 20:56:15 41° NE 20:56:15 41° NE
Terra 2.3 21:03:52 56° N 21:03:52 56° N 21:07:39 10° N
Cosmos 1763 Rocket 3.7 20:59:53 10° NNW 21:04:17 65° NW 21:04:17 65° NW
Cosmos 540 Rocket 4.0 21:07:39 10° NNW 21:11:41 52° NNE 21:11:41 52° NNE
SPOT 5 3.6 21:14:08 47° WNW 21:14:08 47° WNW 21:17:56 10° NNW
Meteor 2-2 Rocket 4.5 21:15:41 63° W 21:15:57 64° WNW 21:21:38 10° N
NOSS 3-1 (C) 4.0 21:11:25 10° NW 21:19:06 86° NE 21:20:23 68° SE
USA 215 3.1 21:21:36 82° SSW 21:21:45 83° SW 21:28:20 10° NW
SL-16 R/B 3.3 21:20:21 10° NW 21:25:19 34° WSW 21:25:19 34° WSW
SL-4 R/B 4.3 21:27:45 10° WNW 21:31:40 27° N 21:33:32 21° NNE
ERS-1 Rocket 4.2 21:33:53 34° W 21:33:53 34° W 21:37:49 10° NNW
Cosmos 1943 3.9 21:45:56 10° NNW 21:50:06 52° NNW 21:50:06 52° NNW
Cosmos 1745 Rocket 4.3 21:47:55 10° NNW 21:53:25 63° NW 21:53:25 63° NW
SeaSat 1 4.2 21:49:14 10° NNE 21:51:18 25° NNE 21:51:18 25° NNE
Cosmos 1709 Rocket 4.4 21:53:13 10° N 21:58:10 57° NNE 21:58:10 57° NNE
Cosmos 2263 Rocket 3.4 22:16:15 35° NW 22:16:15 35° NW 22:21:09 10° N
Cosmos 1844 Rocket 4.3 22:30:56 28° NE 22:30:56 28° NE 22:33:30 10° NNE
USA 229 DEB 4.4 22:21:00 10° NW 22:27:01 51° W 22:27:01 51° W
USA 229 4.4 22:21:05 10° NW 22:27:08 52° W 22:27:08 52° W
Lacrosse 5 rocket 4.1 22:24:31 10° NW 22:25:34 17° NW 22:25:34 17° NW
SJ 16-02 4.3 23:17:22 10° NE 23:17:22 10° NE 23:17:29 10° NE
Cosmos 2278 Rocket 4.2 23:19:29 20° ENE 23:19:29 20° ENE 23:21:40 10° NE
ATLAS 5 CENTAUR R/B 3.6 23:21:35 10° NNW 23:26:37 33° NE 23:27:07 33° NE
USA 281 3.5 23:43:08 64° N 23:43:08 64° N 23:48:38 10° NNW
COSMOS 2406 4.3 23:40:28 10° NNW 23:44:54 39° NNE 23:44:54 39° NNE
